Wind_Speed
22 23 23 24 23 23 24 24 24 25 25 25 24 25 26 27 27 27 28 28 28 29 29 29 29 29 29 29 29 29 29 29 29 29 28 28 28 28 28 27 27 28 29
23 23 24 24 24 25 25 25 24 25 25 25 25 24 25 27 28 28 29 30 30 30 30 31 30 29 30 30 29 30 31 31 31 31 31 30 30 31 30 30 31 31 31
23 23 24 25 25 26 26 26 25 26 25 25 26 26 25 26 27 28 29 29 30 30 30 31 31 30 30 29 30 30 31 31 32 32 32 31 31 32 32 32 33 33 33
22 23 24 25 26 27 27 27 27 27 27 26 26 26 27 26 26 27 28 28 28 29 29 30 31 31 30 29 29 29 30 31 31 33 34 34 33 34 34 34 34 35 35
22 23 24 25 26 26 27 27 27 28 28 28 27 27 27 27 27 27 27 27 27 28 28 29 29 30 30 30 30 30 31 31 32 34 35 35 35 35 35 36 36 36 36
21 23 24 24 24 25 26 26 27 28 29 29 28 28 28 28 28 28 28 28 28 28 28 28 29 30 30 31 32 32 32 33 34 34 35 36 36 36 36 37 37 36 36
21 21 22 22 23 23 24 25 26 27 28 28 28 28 28 28 28 28 28 29 28 28 29 30 30 30 32 32 33 33 34 35 35 35 36 36 36 36 37 37 36 36 36
19 19 20 21 22 22 23 24 25 25 26 27 27 27 28 28 28 28 28 29 28 28 29 30 30 31 32 33 34 33 33 34 35 36 36 37 37 36 36 37 36 37 37
18 18 19 20 20 21 22 23 24 25 26 26 27 26 27 28 28 28 29 29 29 29 29 29 31 31 31 32 33 33 34 34 34 34 36 36 36 36 36 36 36 36 37
17 18 19 19 19 20 21 22 23 24 25 25 26 27 27 28 28 28 29 29 29 30 30 30 31 32 32 32 32 33 34 35 35 35 35 36 36 36 36 36 37 38 38
18 19 20 21 21 21 22 23 24 24 25 26 26 27 28 28 28 28 29 29 29 30 30 30 31 31 31 32 32 31 31 32 33 34 34 33 34 36 37 36 37 38 38
19 20 21 22 23 23 24 24 25 25 25 25 26 27 27 27 28 28 29 29 29 29 29 29 30 30 31 31 32 31 31 31 32 32 33 33 34 35 35 35 36 36 36
22 22 23 24 24 25 25 25 26 26 26 26 26 26 26 26 27 28 27 27 28 28 28 29 29 30 30 31 31 31 30 30 30 31 32 32 33 34 33 34 34 34 33
23 24 24 25 25 26 26 26 26 26 26 26 25 25 25 25 25 25 25 25 25 25 25 26 27 28 28 28 29 30 30 30 29 29 29 29 30 30 31 31 31 31 32
24 25 25 26 26 26 26 26 26 25 25 24 23 23 23 22 22 23 23 22 22 22 23 23 24 25 25 26 26 27 27 27 26 27 27 27 27 27 28 27 28 29 29
26 26 26 26 26 25 25 26 25 24 23 22 22 21 20 20 19 20 20 20 20 20 20 21 21 21 22 23 23 23 24 24 23 24 24 24 24 25 25 25 25 26 26
26 26 25 25 25 25 25 24 23 22 21 21 20 19 17 16 16 16 17 18 18 19 19 19 20 20 20 21 21 21 21 21 21 21 21 22 23 22 22 22 23 23 23
25 24 24 24 24 24 23 21 20 20 20 19 18 17 16 16 15 15 15 15 16 16 16 16 17 17 18 18 18 18 19 19 18 19 19 18 18 19 19 19 19 20 21
23 23 22 22 21 20 19 18 18 18 17 16 15 14 14 14 13 13 14 13 13 14 15 14 14 14 15 15 15 15 16 16 16 16 17 16 15 16 16 16 17 18 18
21 20 19 19 19 18 17 16 16 15 14 13 12 12 12 11 11 10 11 11 11 11 11 11 11 11 12 12 12 13 12 13 14 14 14 13 13 14 14 14 15 16 16
19 17 17 17 16 16 15 14 13 12 10 9 9 9 9 8 8 7 7 8 8 8 8 8 8 8 8 9 10 10 10 10 10 11 11 11 12 12 12 12 12 12 13
16 15 15 14 13 13 13 11 10 8 7 6 6 6 6 5 5 5 5 5 5 6 5 5 6 6 6 6 7 7 7 6 7 7 8 9 10 10 10 10 10 10 11
14 13 12 12 11 11 10 9 7 6 5 4 3 3 3 3 3 2 2 3 3 4 4 4 4 4 4 4 5 5 5 5 6 6 7 7 7 7 8 8 8 9 9
12 11 10 9 9 9 8 7 6 5 4 3 3 3 2 2 2 2 2 2 1 1 2 1 2 2 1 1 2 2 2 2 3 4 4 4 4 4 5 6 6 6 7
10 10 9 8 7 7 7 7 6 6 5 5 5 5 5 5 5 4 5 5 4 4 3 3 3 3 3 3 2 2 1 1 1 1 1 1 1 1 2 3 3 4 5
9 9 8 7 7 7 7 7 7 7 7 7 7 7 7 7 7 7 7 7 7 7 6 6 6 5 5 5 5 5 5 4 4 3 4 4 3 3 2 3 4 3 3
Wind_Direction
270 271 271 271 273 275 276 276 275 274 273 273 273 273 273 272 268 265 263 262 260 259 259 260 261 261 261 258 257 256 255 253 250 250 249 250 250 248 248 249 249 248 249
270 270 270 271 271 273 275 275 275 273 272 271 273 272 271 272 269 265 265 264 260 258 257 259 259 260 260 257 258 256 254 252 250 249 249 250 250 249 249 249 249 250 251
272 272 272 272 273 274 273 271 273 273 272 271 271 272 271 272 270 265 264 264 260 258 258 256 256 257 258 256 256 256 253 251 250 249 250 250 251 249 250 250 249 249 251
275 277 275 275 275 274 272 270 271 271 272 271 271 270 270 271 271 267 266 265 262 260 259 257 256 255 254 253 253 254 250 250 250 249 250 250 251 250 251 251 252 251 252
277 279 279 278 277 275 273 271 271 271 272 272 272 271 271 272 272 272 269 266 263 263 262 259 258 256 254 252 251 252 250 252 252 252 251 251 250 251 252 253 254 253 254
281 281 282 280 278 276 274 273 271 271 273 273 272 271 272 273 272 271 271 268 265 263 261 259 257 256 256 254 253 252 253 253 254 252 251 251 251 252 253 254 255 255 255
283 283 283 284 283 279 277 276 275 273 274 274 273 272 272 272 271 270 269 269 266 263 262 261 259 257 257 257 255 254 255 254 253 251 252 252 253 253 252 253 254 255 256
286 285 288 288 285 282 280 278 275 275 274 274 274 275 274 272 272 270 270 269 268 266 263 262 262 261 259 258 256 254 255 255 254 253 253 254 253 251 251 252 254 255 256
290 288 290 293 290 287 283 280 278 277 277 276 275 275 274 272 272 272 272 270 269 268 265 264 263 261 260 258 256 254 254 256 256 256 255 254 252 252 251 252 254 254 254
291 293 295 296 296 292 288 284 284 282 280 278 276 275 274 273 274 273 271 271 270 268 266 266 265 263 261 259 257 256 254 254 256 256 255 254 253 251 253 254 254 256 258
295 297 297 296 296 295 291 289 287 285 283 281 279 277 275 275 275 273 272 273 272 272 270 267 265 263 261 260 259 257 256 254 255 255 254 254 254 254 254 254 255 255 256
298 297 298 299 297 295 292 290 288 286 285 283 281 280 278 276 275 275 275 275 275 273 271 268 266 263 261 261 260 258 258 256 256 255 256 256 255 256 256 255 255 256 257
299 299 299 300 298 296 294 291 290 288 286 285 285 283 281 278 276 277 276 275 274 273 271 268 266 264 262 259 259 258 258 257 257 258 258 257 256 256 258 259 259 259 260
301 302 301 301 299 298 296 294 292 290 289 288 288 286 285 282 278 276 276 276 274 272 271 267 264 263 262 260 259 258 257 258 259 259 259 259 259 260 261 261 260 260 261
303 303 301 301 300 299 297 295 293 291 290 289 289 288 286 283 279 277 276 275 273 272 272 270 267 263 260 259 259 257 256 256 258 259 259 260 259 259 260 261 261 261 261
304 304 302 301 300 300 298 296 293 291 291 290 291 290 287 285 282 280 275 274 276 275 274 273 269 265 263 261 260 258 257 256 256 258 258 258 259 259 259 261 261 261 262
304 304 303 303 303 301 300 296 294 292 292 292 291 289 287 285 283 280 277 275 275 276 277 272 269 266 264 263 260 258 259 258 257 258 259 259 259 258 260 261 262 263 264
304 304 304 304 305 304 302 298 295 293 293 290 289 288 287 285 282 279 278 275 272 273 275 273 271 266 263 260 258 257 257 255 255 258 260 262 260 262 263 264 265 264 265
307 306 306 307 307 307 304 300 297 294 292 288 286 284 285 286 283 279 277 277 274 274 276 274 274 272 266 259 255 258 257 253 255 258 260 261 262 263 264 266 269 270 270
311 310 310 310 310 310 309 304 301 297 292 289 286 285 285 286 284 277 276 278 278 279 276 275 276 275 267 261 257 257 259 255 254 255 258 260 260 263 266 269 273 273 273
315 315 315 316 316 314 314 311 307 302 296 296 292 286 283 281 280 278 279 284 286 285 280 280 282 280 274 265 256 251 251 253 252 256 259 260 261 262 263 266 271 274 275
320 320 320 321 321 320 321 320 318 311 304 301 294 286 283 285 282 283 287 289 294 296 291 287 291 290 279 265 253 246 249 250 249 258 264 264 263 262 264 270 276 281 281
326 327 329 332 333 334 336 336 334 330 320 312 311 304 299 297 290 296 296 303 305 309 306 300 299 298 284 269 252 242 248 258 261 260 265 267 266 270 274 278 282 284 286
332 334 339 342 347 353 358 1 3 4 9 22 33 37 42 49 47 48 33 27 16 4 4 345 346 340 339 294 226 233 240 265 267 260 266 275 279 287 287 289 286 286 289
346 349 351 354 3 9 15 18 27 40 48 59 66 70 75 79 70 68 63 63 61 60 57 62 70 73 78 85 96 105 93 54 46 42 355 335 338 328 321 321 316 309 309
354 359 6 13 19 27 34 39 44 50 58 67 74 78 80 77 75 76 74 71 68 68 70 74 79 78 78 78 77 76 72 69 75 81 80 72 63 50 28 1 352 342 336
Height
5842 5842 5841 5841 5840 5840 5839 5838 5837 5837 5836 5836 5836 5835 5835 5834 5834 5834 5833 5833 5834 5834 5835 5836 5837 5837 5838 5839 5839 5841 5842 5843 5845 5846 5847 5849 5850 5851 5852 5853 5854 5855 5856
5837 5836 5835 5835 5834 5834 5833 5832 5831 5830 5830 5830 5829 5828 5828 5827 5827 5827 5826 5826 5827 5827 5828 5829 5830 5830 5831 5832 5833 5833 5835 5836 5838 5839 5840 5842 5844 5844 5845 5846 5848 5849 5849
5831 5830 5829 5828 5828 5827 5826 5826 5825 5824 5824 5823 5823 5822 5821 5821 5820 5820 5819 5819 5819 5820 5820 5821 5822 5822 5823 5824 5825 5826 5827 5828 5830 5831 5833 5834 5836 5837 5838 5839 5840 5841 5842
5825 5824 5823 5822 5821 5820 5819 5819 5818 5818 5817 5817 5816 5815 5815 5814 5814 5813 5813 5812 5812 5812 5812 5813 5814 5814 5815 5816 5817 5818 5819 5821 5822 5823 5825 5827 5828 5829 5830 5831 5832 5833 5834
5820 5818 5817 5816 5814 5813 5812 5812 5811 5811 5810 5810 5809 5809 5808 5807 5806 5806 5806 5806 5805 5805 5805 5805 5806 5806 5808 5809 5810 5811 5812 5813 5814 5815 5816 5818 5819 5821 5822 5823 5824 5825 5826
5814 5813 5811 5809 5808 5807 5805 5805 5804 5803 5803 5802 5802 5801 5801 5800 5799 5799 5798 5798 5798 5798 5798 5798 5798 5799 5800 5801 5802 5803 5804 5805 5806 5807 5808 5809 5811 5812 5814 5815 5815 5816 5817
5809 5807 5805 5803 5802 5800 5799 5798 5797 5797 5796 5795 5794 5794 5794 5793 5792 5791 5791 5790 5790 5791 5791 5791 5791 5791 5792 5793 5794 5795 5796 5797 5798 5799 5800 5801 5803 5804 5805 5806 5807 5808 5809
5803 5801 5800 5798 5796 5794 5793 5792 5791 5790 5789 5788 5787 5787 5786 5786 5785 5784 5784 5783 5783 5783 5783 5783 5783 5783 5784 5784 5785 5786 5787 5788 5789 5790 5791 5792 5794 5795 5797 5798 5799 5800 5800
5798 5796 5795 5793 5791 5789 5787 5786 5785 5784 5782 5781 5780 5779 5779 5778 5778 5777 5776 5776 5776 5775 5775 5775 5775 5775 5775 5776 5777 5778 5779 5780 5781 5781 5782 5783 5785 5786 5788 5789 5790 5791 5792
5794 5792 5790 5788 5786 5784 5782 5780 5779 5777 5776 5775 5774 5773 5772 5771 5770 5769 5769 5768 5768 5767 5767 5767 5767 5767 5767 5768 5769 5769 5770 5771 5772 5773 5774 5775 5776 5777 5778 5780 5781 5782 5783
5789 5787 5785 5783 5781 5778 5776 5774 5773 5771 5769 5768 5766 5765 5764 5763 5763 5762 5761 5760 5759 5759 5759 5759 5758 5759 5759 5759 5760 5761 5761 5763 5763 5764 5765 5766 5768 5769 5770 5771 5772 5773 5773
5784 5782 5780 5777 5775 5772 5770 5768 5766 5764 5762 5761 5759 5758 5757 5756 5755 5754 5753 5752 5751 5750 5750 5750 5750 5750 5751 5751 5752 5753 5753 5754 5755 5756 5757 5758 5759 5760 5761 5762 5763 5764 5764
5779 5776 5774 5771 5769 5766 5763 5761 5759 5757 5755 5753 5752 5750 5749 5748 5747 5745 5744 5743 5743 5742 5741 5741 5741 5742 5742 5743 5744 5744 5745 5746 5747 5748 5749 5750 5751 5752 5752 5753 5754 5755 5756
5773 5770 5768 5765 5762 5759 5756 5754 5752 5750 5748 5746 5744 5742 5741 5740 5739 5738 5737 5736 5735 5734 5733 5733 5733 5734 5734 5735 5735 5736 5737 5738 5739 5740 5741 5742 5743 5744 5745 5745 5746 5747 5748
5767 5764 5761 5758 5755 5752 5749 5747 5744 5742 5740 5738 5737 5735 5733 5732 5731 5730 5729 5729 5728 5727 5727 5726 5726 5726 5726 5727 5728 5729 5730 5731 5732 5733 5734 5735 5736 5736 5737 5738 5739 5740 5740
5761 5758 5754 5751 5748 5745 5742 5740 5737 5735 5733 5731 5730 5728 5727 5726 5725 5724 5723 5722 5722 5721 5721 5720 5719 5719 5720 5720 5721 5722 5723 5724 5725 5726 5726 5727 5728 5729 5730 5731 5732 5732 5733
5754 5751 5747 5744 5741 5738 5735 5733 5730 5728 5726 5725 5723 5722 5721 5720 5719 5718 5717 5717 5716 5716 5715 5715 5714 5714 5714 5715 5715 5716 5718 5718 5719 5720 5721 5721 5722 5723 5724 5724 5725 5725 5726
5748 5744 5741 5738 5735 5731 5728 5726 5724 5722 5720 5719 5717 5717 5716 5715 5714 5713 5712 5712 5711 5711 5711 5710 5709 5708 5709 5710 5710 5711 5712 5713 5714 5714 5715 5716 5716 5717 5718 5719 5719 5720 5720
5742 5739 5735 5732 5729 5726 5723 5720 5718 5716 5715 5713 5712 5712 5711 5710 5709 5709 5708 5708 5708 5707 5707 5706 5705 5705 5705 5705 5706 5707 5707 5708 5709 5710 5710 5711 5712 5713 5713 5714 5714 5714 5715
5737 5733 5730 5727 5724 5721 5718 5715 5713 5711 5710 5709 5708 5708 5707 5706 5706 5705 5705 5705 5704 5703 5703 5703 5702 5702 5701 5702 5702 5703 5704 5704 5705 5706 5706 5707 5708 5709 5709 5710 5710 5710 5710
5732 5729 5726 5723 5720 5717 5714 5712 5710 5708 5707 5706 5705 5704 5704 5703 5703 5702 5702 5702 5702 5701 5700 5700 5699 5699 5699 5699 5700 5700 5701 5701 5702 5702 5703 5704 5704 5705 5705 5706 5706 5706 5706
5729 5725 5722 5719 5717 5714 5711 5709 5707 5705 5704 5703 5703 5702 5702 5701 5701 5700 5700 5700 5700 5699 5699 5698 5698 5697 5697 5697 5697 5698 5698 5699 5699 5700 5700 5701 5701 5702 5702 5703 5702 5702 5702
5726 5723 5720 5717 5715 5712 5710 5708 5706 5704 5703 5702 5701 5701 5700 5700 5700 5699 5699 5699 5698 5698 5697 5697 5696 5696 5695 5695 5695 5696 5696 5697 5697 5698 5698 5698 5699 5699 5700 5700 5700 5700 5699
5724 5721 5719 5716 5714 5712 5710 5707 5706 5704 5703 5702 5701 5700 5700 5700 5699 5699 5699 5698 5698 5697 5696 5696 5695 5695 5695 5694 5695 5695 5695 5696 5696 5696 5696 5697 5697 5698 5698 5698 5698 5697 5697
5723 5720 5718 5716 5714 5712 5710 5708 5706 5705 5704 5703 5702 5701 5701 5700 5700 5699 5699 5698 5698 5698 5697 5697 5696 5696 5695 5695 5695 5695 5695 5695 5695 5695 5696 5696 5696 5697 5696 5696 5696 5696 5695
5722 5720 5718 5716 5714 5712 5711 5709 5708 5706 5705 5704 5703 5703 5702 5702 5701 5701 5700 5700 5699 5699 5698 5698 5698 5697 5697 5696 5696 5696 5696 5696 5696 5696 5696 5696 5696 5696 5696 5696 5695 5695 5695